Location: Brivio
(45.7333°N, 9.4500°E)
Time: 00:25:41
(UTC+00:00)

ARGOS - Pass Details

Date: 18 October 2019
Orbit: 820 x 835 km, 98.5° (Epoch: 12 November)

Event Time Altitude Azimuth Distance (km) Brightness Sun altitude
Exits shadow 18:19:44 29° 58° (ENE) 1,507 4.1 -19.5°
Drops below altitude 10° 18:24:03 10° 6° (N) 2,457 5.6 -20.3°
Sets 18:26:41 0° 356° (N) 3,395 6.5 -20.7°
